Notices

What's New in latest Release from April 7th, 2021:

- Updated Glossary, including Speed of Maximum Gust, and Total Hourly Precipitation

- Updated national and regional climate services offices contacts and prices information

- Addition of station inventory lists for 1981-2010, 1971-2000, and 1961-1990 Normals.

If you haven't already, please take our survey and provide feedback about our website: https://eccc.sondage-survey.ca/f/LanguageSelection.aspx?s=442ca660-fcf1-47c0-95a9-59707d6fd709

Hourly Data Report for June 20, 2006

TORONTO CITY
ONTARIO

43°40'00.000" N
79°24'00.000" W
112.50 m
6158355
71508
XTO

Download Data

Hourly Data (June 2006)
Hourly Data Report for June 20, 2006
TIME
LST
Temp Definition
°C
Dew Point Definition
°C
Rel Hum Definition
%
Precip. Amount Definition
mm

Wind Dir Definition
10's deg

Wind Spd Definition
km/h
Visibility Definition
km
Stn Press Definition
kPa
Hmdx Definition


Wind Chill Definition


Weather Definition


00:00 21.0 15.0 69   LegendMM LegendMM   99.50 25   LegendNANA
01:00 20.5 15.6 73   LegendMM LegendMM   99.49 25   LegendNANA
02:00 19.8 15.4 76   LegendMM LegendMM   99.53     LegendNANA
03:00 19.1 15.3 79   LegendMM LegendMM   99.56     LegendNANA
04:00 18.5 15.3 82   LegendMM LegendMM   99.62     LegendNANA
05:00 17.9 14.8 82   LegendMM LegendMM   99.67     LegendNANA
06:00 17.8 14.4 80   LegendMM LegendMM   99.75     LegendNANA
07:00 17.8 14.6 82   LegendMM LegendMM   99.82     LegendNANA
08:00 18.6 15.0 80   LegendMM LegendMM   99.86     LegendNANA
09:00 19.9 15.6 76   LegendMM LegendMM   99.91     LegendNANA
10:00 20.5 14.3 68   LegendMM LegendMM   99.94     LegendNANA
11:00 22.0 12.3 54   LegendMM LegendMM   99.92     LegendNANA
12:00 21.9 13.3 58   LegendMM LegendMM   99.93 25   LegendNANA
13:00 21.9 11.0 50   LegendMM LegendMM   99.99     LegendNANA
14:00 22.1 11.7 52   LegendMM LegendMM   100.02     LegendNANA
15:00 22.6 12.2 52   LegendMM LegendMM   100.04 25   LegendNANA
16:00 22.1 11.0 49   LegendMM LegendMM   100.05     LegendNANA
17:00 21.9 10.5 48   LegendMM LegendMM   100.10     LegendNANA
18:00 21.1 10.2 50   LegendMM LegendMM   100.12     LegendNANA
19:00 20.1 9.3 50   LegendMM LegendMM   100.13     LegendNANA
20:00 19.0 6.6 44   LegendMM LegendMM   100.20     LegendNANA
21:00 17.8 7.3 50   LegendMM LegendMM   100.26     LegendNANA
22:00 17.1 7.6 54   LegendMM LegendMM   100.23     LegendNANA
23:00 16.9 8.3 57   LegendMM LegendMM   100.23     LegendNANA

Notes on Data Quality.

Legend

  • E = Estimated
  • M = Missing
  • NA = Not Available*
  • [empty] = Indicates an unobserved value
Date modified: